User: anonymous   Login
Location: Newark
(49.7697°N, 2.7094°E)
Time: 00:25:33
(UTC+00:00)
Language:

RS-15 - Orbit

View from above orbital plane
View from above orbital plane
View from above satellite
View from above satellite

Ground track
Ground track

The orbit data is extracted from the following two-line orbital elements,

1 23439U 94085A   20093.29191989 -.00000039  00000-0  82945-4 0  9994
2 23439  64.8205   9.4164 0147574  56.6986 304.7974 11.27568872 40599
Epoch (UTC): 02 April 2020 07:00:21
Eccentricity: 0.0147574
inclination: 64.8205°
perigee height: 1898 km
apogee height: 2146 km
right ascension of ascending node: 9.4164°
argument of perigee: 56.6986°
revolutions per day: 11.27568872
mean anomaly at epoch: 304.7974°
orbit number at epoch: 4059

The dashed part of the orbit path shows where the satellite is in the earth's shadow,  

DLR